User: anonymous   Login
Location: Solon
(41.3849°N, 81.4081°W)
Time: 17:49:19
(UTC-04:00)
Language:

CZ-2C R/B - Orbit

View from above orbital plane
View from above orbital plane
View from above satellite
View from above satellite

Ground track
Ground track

The orbit data is extracted from the following two-line orbital elements,

1 28480U 04046B   16152.22258934  .00000052  00000-0  35984-4 0  9996
2 28480  98.1802 267.2487 0140819 271.8578 145.6916 14.25592672599816
Epoch (UTC): 31 May 2016 05:20:31
Eccentricity: 0.0140819
inclination: 98.1802°
perigee height: 705 km
apogee height: 907 km
right ascension of ascending node: 267.2487°
argument of perigee: 271.8578°
revolutions per day: 14.25592672
mean anomaly at epoch: 145.6916°
orbit number at epoch: 59981

The dashed part of the orbit path shows where the satellite is in the earth's shadow,  

DLR